Weather History for Monett, MO

Change the Weather History Date:

Monday, August 26, 2013

  Actual Average (KJLN) Record (KJLN)
Temperature  
Mean Temperature 78 °F 78 °F  
Max Temperature 87 °F 90 °F 101 °F (1983)
Min Temperature 69 °F 67 °F 51 °F (1962)
Degree Days  
Heating Degree Days 0 0  
Month to date heating degree days 0  
Since 1 June heating degree days 5  
Since 1 July heating degree days 0  
Cooling Degree Days 13 13  
Month to date cooling degree days 395  
Year to date cooling degree days 1366  
Since 1 June cooling degree days 1186  
Growing Degree Days 28 (Base 50)    
Moisture  
Dew Point 70 °F    
Average Humidity 76    
Maximum Humidity 100    
Minimum Humidity 52    
Precipitation  
Precipitation 0.00 in 0.13 in 3.16 in (1950)
Month to date precipitation 2.73  
Year to date precipitation 30.35  
Sea Level Pressure  
Sea Level Pressure 30.19 in    
Wind  
Wind Speed 6 mph (South)    
Max Wind Speed 13 mph    
Max Gust Speed -    
Visibility 10 miles    
Events      
T = Trace of Precipitation, MM = Missing Value Source: NWS Daily Summary

Daily Weather History Graph

Daily Weather History Graph

Search for Another Location

Airport:

Trip Planner

Search our weather history database for the weather conditions in past years. The results will help you decide how hot, cold, wet, or windy it might be!

Date:

Astronomy

Aug. 26, 2013 Rise Set
Actual Time 6:42 AM CDT 7:52 PM CDT
Civil Twilight 6:15 AM CDT 8:19 PM CDT
Nautical Twilight 5:43 AM CDT 8:51 PM CDT
Astronomical Twilight 5:10 AM CDT 9:24 PM CDT
Moon 11:14 PM CDT (8/26) 12:34 PM CDT (8/26)
Length of Visible Light 14h 03m
Length of Day
13h 10m
Waning Gibbous, 66% of the Moon is Illuminated
Aug 26
Waning Gibbous
Aug 28
Last Quarter
Sep 5
New
Sep 12
First Quarter
Sep 19
Full

Hourly Weather History & Observations

Time (CDT) Temp. Heat Index Dew Point Humidity Pressure Visibility Wind Dir Wind Speed Gust Speed Precip Events Conditions
12:15 AM 73.4 °F - 69.8 °F 88% 30.21 in 10.0 mi SE 5.8 mph - N/A   Clear
12:35 AM 73.4 °F - 69.8 °F 88% 30.21 in 10.0 mi SE 4.6 mph - N/A   Clear
12:55 AM 71.6 °F - 69.8 °F 94% 30.22 in 10.0 mi SE 5.8 mph - N/A   Clear
1:15 AM 71.6 °F - 69.8 °F 94% 30.21 in 10.0 mi SE 5.8 mph - N/A   Clear
1:35 AM 71.6 °F - 68.0 °F 88% 30.21 in 10.0 mi SE 5.8 mph - N/A   Clear
1:55 AM 71.6 °F - 69.8 °F 94% 30.21 in 10.0 mi SSE 5.8 mph - N/A   Clear
2:15 AM 71.6 °F - 69.8 °F 94% 30.21 in 10.0 mi SE 5.8 mph - N/A   Clear
2:35 AM 71.6 °F - 68.0 °F 88% 30.21 in 10.0 mi SE 5.8 mph - N/A   Clear
2:55 AM 71.6 °F - 68.0 °F 88% 30.21 in 10.0 mi SSE 5.8 mph - N/A   Clear
3:15 AM 71.6 °F - 68.0 °F 88% 30.21 in 10.0 mi SE 5.8 mph - N/A   Clear
3:35 AM 71.6 °F - 68.0 °F 88% 30.21 in 10.0 mi SE 5.8 mph - N/A   Clear
3:55 AM 71.6 °F - 68.0 °F 88% 30.21 in 10.0 mi SE 5.8 mph - N/A   Clear
4:15 AM 71.6 °F - 68.0 °F 88% 30.21 in 10.0 mi SE 5.8 mph - N/A   Clear
4:35 AM 69.8 °F - 68.0 °F 94% 30.21 in 10.0 mi SE 4.6 mph - N/A   Clear
4:55 AM 69.8 °F - 68.0 °F 94% 30.21 in 10.0 mi SE 5.8 mph - N/A   Clear
5:15 AM 69.8 °F - 68.0 °F 94% 30.21 in 10.0 mi SE 5.8 mph - N/A   Clear
5:35 AM 69.8 °F - 68.0 °F 94% 30.21 in 10.0 mi SSE 5.8 mph - N/A   Clear
5:55 AM 69.8 °F - 68.0 °F 94% 30.21 in 10.0 mi SE 6.9 mph - N/A   Clear
6:15 AM 69.8 °F - 68.0 °F 94% 30.21 in 10.0 mi SSE 5.8 mph - N/A   Clear
6:35 AM 69.8 °F - 68.0 °F 94% 30.22 in 10.0 mi SSE 4.6 mph - N/A   Clear
6:55 AM 69.8 °F - 68.0 °F 94% 30.22 in 7.0 mi SSE 4.6 mph - N/A   Clear
7:15 AM 69.8 °F - 69.8 °F 100% 30.22 in 7.0 mi SSE 4.6 mph - N/A   Clear
7:35 AM 71.6 °F - 69.8 °F 94% 30.23 in 7.0 mi SSE 4.6 mph - N/A   Clear
7:55 AM 71.6 °F - 69.8 °F 94% 30.23 in 10.0 mi South 5.8 mph - N/A   Clear
8:15 AM 73.4 °F - 69.8 °F 88% 30.23 in 10.0 mi South 5.8 mph - N/A   Clear
8:35 AM 75.2 °F - 69.8 °F 83% 30.23 in 10.0 mi South 6.9 mph - N/A   Clear
8:55 AM 77.0 °F - 71.6 °F 83% 30.23 in 10.0 mi SSW 8.1 mph - N/A   Clear
9:15 AM 78.8 °F - 71.6 °F 78% 30.25 in 10.0 mi SSW 6.9 mph - N/A   Clear
9:35 AM 78.8 °F - 69.8 °F 74% 30.25 in 10.0 mi SSW 10.4 mph - N/A   Clear
9:55 AM 80.6 °F 84.6 °F 71.6 °F 74% 30.25 in 10.0 mi SSW 12.7 mph - N/A   Clear
10:15 AM 80.6 °F 84.6 °F 71.6 °F 74% 30.25 in 10.0 mi SSW 8.1 mph - N/A   Clear
10:35 AM 82.4 °F 87.2 °F 71.6 °F 70% 30.25 in 10.0 mi SW 10.4 mph - N/A   Clear
10:55 AM 82.4 °F 87.2 °F 71.6 °F 70% 30.25 in 10.0 mi SW 10.4 mph - N/A   Clear
11:15 AM 82.4 °F 86.3 °F 69.8 °F 66% 30.25 in 10.0 mi WSW 6.9 mph - N/A   Clear
11:35 AM 84.2 °F 88.4 °F 69.8 °F 62% 30.25 in 10.0 mi SW 8.1 mph - N/A   Clear
11:55 AM 86.0 °F 90.4 °F 69.8 °F 58% 30.25 in 10.0 mi SW 9.2 mph - N/A   Clear
12:15 PM 86.0 °F 91.8 °F 71.6 °F 62% 30.24 in 10.0 mi SW 10.4 mph - N/A   Scattered Clouds
12:35 PM 86.0 °F 90.4 °F 69.8 °F 58% 30.23 in 10.0 mi WSW 8.1 mph - N/A   Scattered Clouds
12:55 PM 86.0 °F 90.4 °F 69.8 °F 58% 30.23 in 10.0 mi SW 5.8 mph - N/A   Scattered Clouds
1:15 PM 86.0 °F 90.4 °F 69.8 °F 58% 30.22 in 10.0 mi SW 5.8 mph - N/A   Scattered Clouds
1:35 PM 86.0 °F 90.4 °F 69.8 °F 58% 30.21 in 10.0 mi WSW 5.8 mph - N/A   Scattered Clouds
1:55 PM 86.0 °F 90.4 °F 69.8 °F 58% 30.21 in 10.0 mi WSW 5.8 mph - N/A   Scattered Clouds
2:15 PM 86.0 °F 90.4 °F 69.8 °F 58% 30.20 in 10.0 mi SSW 4.6 mph - N/A   Scattered Clouds
2:35 PM 87.8 °F 92.6 °F 69.8 °F 55% 30.19 in 10.0 mi SSW 8.1 mph - N/A   Scattered Clouds
2:55 PM 87.8 °F 92.6 °F 69.8 °F 55% 30.18 in 10.0 mi SW 9.2 mph - N/A   Scattered Clouds
3:15 PM 87.8 °F 92.6 °F 69.8 °F 55% 30.17 in 10.0 mi SW 5.8 mph - N/A   Clear
3:35 PM 87.8 °F 92.6 °F 69.8 °F 55% 30.17 in 10.0 mi South 5.8 mph - N/A   Clear
3:55 PM 87.8 °F 92.6 °F 69.8 °F 55% 30.16 in 10.0 mi SSW 9.2 mph - N/A   Clear
4:15 PM 87.8 °F 92.6 °F 69.8 °F 55% 30.16 in 10.0 mi South 6.9 mph - N/A   Clear
4:35 PM 87.8 °F 92.6 °F 69.8 °F 55% 30.15 in 10.0 mi SSW 9.2 mph - N/A   Clear
4:55 PM 87.8 °F 92.6 °F 69.8 °F 55% 30.15 in 10.0 mi SSE 5.8 mph - N/A   Clear
5:15 PM 87.8 °F 91.4 °F 68.0 °F 52% 30.14 in 10.0 mi South 6.9 mph - N/A   Clear
5:35 PM 87.8 °F 92.6 °F 69.8 °F 55% 30.14 in 10.0 mi South 6.9 mph - N/A   Clear
5:55 PM 87.8 °F 92.6 °F 69.8 °F 55% 30.14 in 10.0 mi SSW 5.8 mph - N/A   Clear
6:15 PM 86.0 °F 90.4 °F 69.8 °F 58% 30.14 in 10.0 mi SSW 4.6 mph - N/A   Scattered Clouds
6:35 PM 86.0 °F 90.4 °F 69.8 °F 58% 30.13 in 10.0 mi SW 4.6 mph - N/A   Scattered Clouds
6:55 PM 86.0 °F 90.4 °F 69.8 °F 58% 30.13 in 10.0 mi SW 4.6 mph - N/A   Clear
7:15 PM 82.4 °F 87.2 °F 71.6 °F 70% 30.13 in 10.0 mi Calm Calm - N/A   Scattered Clouds
7:35 PM 82.4 °F 87.2 °F 71.6 °F 70% 30.14 in 10.0 mi Calm Calm - N/A   Scattered Clouds
7:55 PM 80.6 °F 84.6 °F 71.6 °F 74% 30.14 in 10.0 mi Calm Calm - N/A   Scattered Clouds
8:15 PM 78.8 °F - 71.6 °F 78% 30.14 in 10.0 mi Calm Calm - N/A   Scattered Clouds
8:35 PM 78.8 °F - 71.6 °F 78% 30.15 in 10.0 mi Calm Calm - N/A   Mostly Cloudy
8:55 PM 77.0 °F - 71.6 °F 83% 30.15 in 10.0 mi SSE 3.5 mph - N/A   Overcast
9:15 PM 78.8 °F - 71.6 °F 78% 30.15 in 10.0 mi South 3.5 mph - N/A   Overcast
9:35 PM 78.8 °F - 71.6 °F 78% 30.15 in 10.0 mi Calm Calm - N/A   Overcast
9:55 PM 78.8 °F - 71.6 °F 78% 30.15 in 10.0 mi SSE 4.6 mph - N/A   Overcast
10:15 PM 77.0 °F - 71.6 °F 83% 30.15 in 10.0 mi South 3.5 mph - N/A   Overcast
10:35 PM 77.0 °F - 69.8 °F 78% 30.15 in 10.0 mi South 4.6 mph - N/A   Mostly Cloudy
10:55 PM 77.0 °F - 69.8 °F 78% 30.15 in 10.0 mi South 3.5 mph - N/A   Mostly Cloudy
11:15 PM 75.2 °F - 69.8 °F 83% 30.15 in 10.0 mi South 4.6 mph - N/A   Mostly Cloudy
11:35 PM 75.2 °F - 68.0 °F 78% 30.15 in 10.0 mi South 3.5 mph - N/A   Mostly Cloudy
11:55 PM 73.4 °F - 68.0 °F 83% 30.14 in 10.0 mi South 3.5 mph - N/A   Scattered Clouds